User: anonymous   Login
Location: Unspecified
(0.0000°N, 0.0000°E)
Time: 09:01:51
(UTC+00:00)
Language:

STARLINK-5051 - Orbit

View from above orbital plane
View from above orbital plane
View from above satellite
View from above satellite

Ground track
Ground track

The orbit is defined by the following mean orbital elements,

1 53916U          26145.47998801 +.00000000 +00000-0 +22486-4 0 00007
2 53916  53.2137 309.0469 0001483  90.5238 269.5924 15.08835687    09
Epoch (UTC): 25 May 2026 11:31:10
Eccentricity: 0.0001483
inclination: 53.2137°
perigee height: 539 km
apogee height: 541 km
right ascension of ascending node: 309.0469°
argument of perigee: 90.5238°
revolutions per day: 15.08835687
mean anomaly at epoch: 269.5924°

The dashed part of the orbit path shows where the satellite is in the earth's shadow,  

DLR